Terminal Aerodrome Forecast
Issued by NWS

Home | Current Version | Previous Version | Text Only | Print | Product List | Glossary On
Versions: 1 2 3 4 5 6 7 8 9 10 11 12 13 14 15 16 17 18 19 20 21 22 23 24 25
000
FTPA31 PHFO 300800 AAA
TAFITO
TAF AMD
PHTO 300845Z 3009/3106 02008KT P6SM VCSH SCT022 BKN040
      TEMPO 3009/3013 5SM SHRA SCT012 BKN020=

USA.gov is the U.S. government's official web portal to all federal, state and local government web resources and services.